Flag Weather past 2 weeks in Augusta, Georgia, U.S.A.

Now
49 °F

Light rain. Overcast.


Feels Like: 44 °F
Forecast: 43 / 55 °F
Wind: 12 mph from Northwest

Location: Daniel Field

Current Time: Nov 26, 2014 at 1:57:36 AM

Latest Report: Nov 26, 2014 at 12:53 AM


Visibility: 8 mi

Pressure: 29.96 "Hg

Humidity: 93%

Dew point: 47 °F

Location of AugustaLocation

Historic Weather in Augusta — Graph

°F

Augusta temperature yesterday

Maximum temperature yesterday: 65 °F (at 12:53 AM)
Minimum temperature yesterday: 49 °F (at 11:53 PM)
Average temperature yesterday: 57 °F

Past Weeks' High & Low Weather Summary

 TemperatureHumidityPressure
High78 °F (Nov 12, 2:53 PM)100% (Nov 17, 7:53 AM)30.51 "Hg (Nov 17, 7:53 AM)
Low25 °F (Nov 19, 5:53 AM)17% (Nov 19, 3:53 PM)29.70 "Hg (Nov 17, 1:53 PM)
Average52 °F61%30.13 "Hg
* Reported Nov 11 12:53 AM — Nov 26 12:53 AM, Augusta, Weather by CustomWeather, © 2014

Note: Actual official high and low records may vary slightly from our data, if they occured in-between our weather recording intervals... More about our weather records

Advertising

Augusta weather history for previous 24 hours

 ConditionsComfort  
Time TempWeatherWind HumidityBarometerVisibility
12:53 AM
Nov 26
49 °FLight rain. Overcast.12 mph93%29.96 "Hg8 mi
11:53 PM
Nov 25
49 °FLight rain. Mostly cloudy.13 mph90%29.99 "Hg10 mi
11:00 PM50 °FLight rain. Low clouds.12 mph93%30.04 "Hg10 mi
9:53 PM52 °FMostly cloudy.9 mph89%30.01 "Hg10 mi
8:53 PM52 °FLight rain. Overcast.10 mph86%30.02 "Hg10 mi
7:53 PM53 °FOvercast.7 mph86%30.03 "Hg10 mi
6:53 PM53 °FOvercast.8 mph89%30.02 "Hg10 mi
5:53 PM54 °FLight rain. Overcast.6 mph90%30.01 "Hg10 mi
4:53 PM54 °FLight rain. Partly sunny.6 mph90%30.00 "Hg10 mi
3:53 PM55 °FLight rain. Overcast.3 mph83%30.01 "Hg10 mi
2:53 PM57 °FLight rain. Overcast.3 mph72%30.01 "Hg10 mi
1:53 PM59 °FLight rain. Overcast.No wind58%30.02 "Hg10 mi
12:53 PM58 °FCool.No wind62%30.03 "Hg10 mi
11:53 AM58 °FPartly sunny.5 mph62%30.06 "Hg10 mi
10:53 AM58 °FBroken clouds.No wind56%30.08 "Hg10 mi
9:53 AM57 °FOvercast.No wind60%30.09 "Hg10 mi
8:53 AM58 °FSunny.5 mph60%30.04 "Hg10 mi
7:53 AM58 °FScattered clouds.7 mph65%30.03 "Hg10 mi
6:53 AM59 °FPassing clouds.5 mph67%30.01 "Hg10 mi
5:53 AM60 °FPassing clouds.6 mph75%29.98 "Hg10 mi
5:04 AM62 °FPassing clouds.3 mph90%29.99 "Hg10 mi
4:53 AM62 °FPartly cloudy.No wind90%29.98 "Hg10 mi
3:53 AM64 °FMostly cloudy.7 mph90%29.95 "Hg10 mi
2:53 AM65 °FLight rain. Fog.6 mph94%29.97 "Hg6 mi
1:53 AM65 °FLight rain. Low clouds.3 mph94%29.95 "Hg9 mi
Weather by CustomWeather, © 2014

See weather overviewHow to use our weather pages